�搅�E���B���j�^�v������
Date,Time,�搅(cps),���B(cps),���J
2024/05/23,00:00,6.9,4.2,��
2024/05/23,00:10,6.9,4.3,��
2024/05/23,00:20,6.9,4.3,��
2024/05/23,00:30,7.0,4.3,��
2024/05/23,00:40,6.9,4.4,��
2024/05/23,00:50,7.0,4.4,��
2024/05/23,01:00,6.8,4.4,��
2024/05/23,01:10,6.9,4.2,��
2024/05/23,01:20,7.1,4.2,��
2024/05/23,01:30,6.9,4.4,��
2024/05/23,01:40,7.0,4.4,��
2024/05/23,01:50,7.0,4.4,��
2024/05/23,02:00,6.9,4.3,��
2024/05/23,02:10,7.0,4.3,��
2024/05/23,02:20,6.9,4.4,��
2024/05/23,02:30,6.9,4.3,��
2024/05/23,02:40,6.8,4.5,��
2024/05/23,02:50,6.9,4.4,��
2024/05/23,03:00,6.9,4.5,��
2024/05/23,03:10,7.0,4.4,��
2024/05/23,03:20,6.9,4.2,��
2024/05/23,03:30,6.9,4.3,��
2024/05/23,03:40,7.0,4.3,��
2024/05/23,03:50,6.9,4.4,��
2024/05/23,04:00,7.0,4.4,��
2024/05/23,04:10,6.8,4.2,��
2024/05/23,04:20,6.9,4.4,��
2024/05/23,04:30,6.8,4.5,��
2024/05/23,04:40,6.7,4.5,��
2024/05/23,04:50,6.9,4.5,��
2024/05/23,05:00,6.9,4.5,��
2024/05/23,05:10,7.0,4.4,��
2024/05/23,05:20,7.1,4.4,��
2024/05/23,05:30,6.9,4.4,��
2024/05/23,05:40,6.9,4.3,��
2024/05/23,05:50,6.8,4.4,��
2024/05/23,06:00,7.0,4.3,��
2024/05/23,06:10,6.9,4.5,��
2024/05/23,06:20,6.9,4.3,��
2024/05/23,06:30,7.0,4.6,��
2024/05/23,06:40,6.9,4.3,��
2024/05/23,06:50,7.1,4.4,��
2024/05/23,07:00,6.9,4.3,��
2024/05/23,07:10,6.8,4.1,��
2024/05/23,07:20,7.0,4.4,��
2024/05/23,07:30,7.0,4.4,��
2024/05/23,07:40,7.1,4.4,��
2024/05/23,07:50,7.1,4.4,��
2024/05/23,08:00,6.9,4.3,��
2024/05/23,08:10,7.0,4.6,��
2024/05/23,08:20,7.1,4.5,��
2024/05/23,08:30,6.9,4.4,��
2024/05/23,08:40,6.9,4.5,��
2024/05/23,08:50,7.1,4.5,��
2024/05/23,09:00,7.3,4.5,��
2024/05/23,09:10,7.4,4.5,��
2024/05/23,09:20,7.7,4.6,��
2024/05/23,09:30,7.5,4.7,��
2024/05/23,09:40,7.6,4.6,��
2024/05/23,09:50,7.5,4.7,��
2024/05/23,10:00,7.5,4.7,��
2024/05/23,10:10,7.7,4.7,��
2024/05/23,10:20,7.6,4.7,��
2024/05/23,10:30,7.6,4.7,��
2024/05/23,10:40,7.6,4.8,��
2024/05/23,10:50,7.6,4.7,��
2024/05/23,11:00,7.7,4.5,��
2024/05/23,11:10,7.5,4.5,��
2024/05/23,11:20,7.7,4.6,��
2024/05/23,11:30,7.5,4.6,��
2024/05/23,11:40,7.6,4.6,��
2024/05/23,11:50,7.4,4.5,��
2024/05/23,12:00,7.4,4.5,��
2024/05/23,12:10,7.4,4.6,��
2024/05/23,12:20,7.7,4.5,��
2024/05/23,12:30,7.7,4.6,��
2024/05/23,12:40,7.7,4.5,��
2024/05/23,12:50,7.6,4.7,��
2024/05/23,13:00,7.6,4.6,��
2024/05/23,13:10,7.6,4.6,��
2024/05/23,13:20,7.6,4.5,��
2024/05/23,13:30,7.6,4.5,��
2024/05/23,13:40,7.7,4.7,��
2024/05/23,13:50,7.6,4.6,��
2024/05/23,14:00,7.6,4.6,��
2024/05/23,14:10,7.6,4.5,��
2024/05/23,14:20,7.6,4.6,��
2024/05/23,14:30,7.6,4.6,��
2024/05/23,14:40,7.6,4.6,��
2024/05/23,14:50,7.4,4.6,��
2024/05/23,15:00,7.5,4.5,��
2024/05/23,15:10,7.3,4.5,��
2024/05/23,15:20,7.4,4.4,��
2024/05/23,15:30,7.4,4.5,��
2024/05/23,15:40,7.5,4.4,��
2024/05/23,15:50,7.4,4.4,��
2024/05/23,16:00,7.5,4.4,��
2024/05/23,16:10,7.5,4.6,��
2024/05/23,16:20,7.4,4.7,��
2024/05/23,16:30,7.4,4.6,��
2024/05/23,16:40,7.4,4.5,��
2024/05/23,16:50,7.6,4.3,��
2024/05/23,17:00,7.6,4.6,��
2024/05/23,17:10,7.4,4.6,��
2024/05/23,17:20,7.4,4.4,��
2024/05/23,17:30,7.4,4.4,��
2024/05/23,17:40,7.4,4.5,��
2024/05/23,17:50,7.5,4.4,��
2024/05/23,18:00,7.4,4.5,��
2024/05/23,18:10,7.4,4.5,��
2024/05/23,18:20,7.5,4.5,��
2024/05/23,18:30,7.3,4.5,��
2024/05/23,18:40,7.5,4.6,��
2024/05/23,18:50,7.4,4.5,��
2024/05/23,19:00,7.4,4.6,��
2024/05/23,19:10,7.5,4.5,��
2024/05/23,19:20,7.5,4.4,��
2024/05/23,19:30,7.4,4.4,��
2024/05/23,19:40,7.2,4.6,��
2024/05/23,19:50,7.5,4.5,��
2024/05/23,20:00,7.5,4.5,��
2024/05/23,20:10,7.4,4.5,��
2024/05/23,20:20,7.5,4.4,��
2024/05/23,20:30,7.4,4.5,��
2024/05/23,20:40,7.3,4.6,��
2024/05/23,20:50,7.4,4.5,��
2024/05/23,21:00,7.4,4.6,��
2024/05/23,21:10,7.6,4.5,��
2024/05/23,21:20,7.4,4.4,��
2024/05/23,21:30,7.3,4.5,��
2024/05/23,21:40,7.6,4.5,��
2024/05/23,21:50,7.4,4.5,��
2024/05/23,22:00,7.5,4.4,��
2024/05/23,22:10,7.5,4.5,��
2024/05/23,22:20,7.3,4.5,��
2024/05/23,22:30,7.5,4.5,��
2024/05/23,22:40,7.5,4.3,��
2024/05/23,22:50,7.4,4.5,��
2024/05/23,23:00,7.4,4.4,��
2024/05/23,23:10,7.3,4.5,��
2024/05/23,23:20,7.3,4.5,��
2024/05/23,23:30,7.5,4.5,��
2024/05/23,23:40,7.2,4.4,��
2024/05/23,23:50,7.5,4.5,��
